Regional Weather Roundup
Issued by NWS

Home | Current Version | Previous Version | Text Only | Print | Product List | Glossary On
Versions: 1 2 3 4 5 6 7 8 9 10 11 12 13 14 15 16 17 18 19 20 21 22 23 24 25 26 27 28 29 30 31 32 33 34 35 36 37 38 39 40 41 42 43 44 45 46 47 48 49 50
000
ASUS45 KABQ 300510
RWRNM
WEATHER ROUNDUP FOR NEW MEXICO
NATIONAL WEATHER SERVICE ALBUQUERQUE NM
1100 PM MDT SUN MAR 29 2015

NOTE: "FAIR" MEANS FEW OR NO CLOUDS BELOW 12,000 FEET AGL WITH NO
       SIGNIFICANT WEATHER OR OBSTRUCTIONS TO VISION.

      THIS PRODUCT IS RELEASED AS TWO VERSIONS.  ONE VERSION NEAR
      THE TOP OF THE HOUR CONTAINING PRELIMINARY DATA FROM ALBUQUERQUE
      AND OTHER STATIONS.  A FINAL VERSION WITH ADDITIONAL DATA IS
      ISSUED ABOUT 10 MINUTES AFTER THE HOUR.

NMZ501-503-504-510>518-300600-
NORTHWEST PLATEAU/NORTHCENTRAL MOUNTAINS

CITY           SKY/WX    TMP DP  RH WIND       PRES   REMARKS
FARMINGTON     CLEAR     55  13  18 N10       30.17S
LOS ALAMOS     MOCLDY    56  25  31 S12G17    30.36R
SANTA FE       MOCLDY    56  23  27 E6        30.29S
TAOS           PTCLDY    46  25  42 SE12      30.32S
ANGEL FIRE     FAIR      35  29  80 W6        30.40F WCI  29

$$
NMZ402-403-502-505>509-300600-
WESTCENTRAL MOUNTAINS/SOUTHWEST MOUNTAINS

CITY           SKY/WX    TMP DP  RH WIND       PRES   REMARKS
GALLUP         CLEAR     42  10  27 NE5       30.26R
GRANTS         PTCLDY    48  13  25 CALM      30.28S
SILVER CITY    CLOUDY    55  23  28 N10       30.23S

$$
NMZ407-409-411-412-300600-
SOUTHERN DESERTS

CITY           SKY/WX    TMP DP  RH WIND       PRES   REMARKS
LORDSBURG      FAIR      59  23  25 CALM      30.16R
DEMING         CLOUDY    62  23  22 SW3       30.16R
LAS CRUCES     CLOUDY    65  18  16 NW5       30.17S
HOLLOMAN AFB   MOCLDY    68  16  13 CALM      30.14R
ALAMOGORDO     MOCLDY    66  27  22 E6        30.16S
T OR C         CLOUDY    63  17  17 W6        30.17R

$$
NMZ519>523-300600-
CENTRAL VALLEYS/CENTRAL HIGHLANDS

CITY           SKY/WX    TMP DP  RH WIND       PRES   REMARKS
ALBUQUERQUE    CLOUDY    64  29  26 E25G37    30.19S
DOUBLE EAGLE   CLOUDY    61  28  29 E22G29    30.24R
MORIARTY ARPT  FAIR      53  21  28 E16G22    30.31R
CLINES CORNERS PTCLDY    46  24  42 E13       30.34R
BELEN          FAIR      67  24  19 SE17G25   30.18S
SOCORRO        FAIR      65  15  14 NE9       30.16R

$$
NMZ524>526-539-540-300600-
SOUTHCENTRAL MOUNTAINS

CITY           SKY/WX    TMP DP  RH WIND       PRES   REMARKS
RUIDOSO        CLOUDY    54  27  35 SE14      30.38R

$$
NMZ527>531-300600-
NORTHEAST HIGHLANDS/NORTHEAST PLAINS

CITY           SKY/WX    TMP DP  RH WIND       PRES   REMARKS
LAS VEGAS      PTCLDY    48  22  35 W3        30.37R
RATON          MOCLDY    53  29  39 SW17      30.30S
CLAYTON        CLOUDY    52  25  35 S7        30.27S

$$
NMZ532>537-300600-
EASTCENTRAL PLAINS

CITY           SKY/WX    TMP DP  RH WIND       PRES   REMARKS
TUCUMCARI      PTCLDY    50  26  39 NE7       30.23F
CANNON AFB     PTCLDY    51  27  39 E9        30.24S
CLOVIS AIRPORT PTCLDY    48  27  43 NE10      30.25S

$$
NMZ028-029-538-300600-
SOUTHEAST PLAINS

CITY           SKY/WX    TMP DP  RH WIND       PRES   REMARKS
ROSWELL        PTCLDY    62  31  31 W7        30.20R
ARTESIA        PTCLDY    64  30  27 SW10      30.20R
CARLSBAD       PTCLDY    68  32  26 S8        30.16R
HOBBS          PTCLDY    63  28  27 E13       30.20R


$$



USA.gov is the U.S. government's official web portal to all federal, state and local government web resources and services.